YPKU

East Kimberley Regional Airport

Airport
ICAO code
YPKU
IATA Code
KNX
Summary
ICAO Region
APAC
ICAO Territory
Location

Kununurra, Western Australia

Serving
Kununurra
Elevation
145 ft
Coordinates
15° 46' 41" S , 128° 42' 34" E
Metar
Observation
YPKU 062300Z AUTO 36005KT 9999 // NCD 30/26 Q1008 RF00.0/039.6
Station
Kununurra Kununurra Aws
Date/Time
2022-12-06 23:00:00
Wind direction
360°
Wind speed
05 kts
Lowest cloud amount
no clouds detected
Temperature
30°C
Dew point
26°C
Humidity
79%
QNH
1008 hPa
Weather condition
n/a

Kununurra Airport is an airport in Kununurra, Western Australia. The airport is 2.5 km from the town centre.

Airport map

Aerial View

SKYbrary Partners:

Safety knowledge contributed by: